{"data":{"norad_id":68900,"epoch":"2026-05-25T01:44:51.133056Z","epoch_age_seconds":71897,"freshness":"FRESH","line1":"1 68900U 26097F   26145.07281404  .00031002  00000+0  56894-3 0  9991","line2":"2 68900  97.2843 340.7600 0002370  88.2965 271.8558 15.49212352  3933","mean_motion":15.49212352,"eccentricity":0.000237,"inclination_deg":97.2843,"raan_deg":340.76,"arg_perigee_deg":88.2965,"mean_anomaly_deg":271.8558,"bstar":0.00056894,"rev_number":393,"period_min":92.950459511957,"perigee_km":417.41803452151,"apogee_km":420.6398911879,"semimajor_km":6797.1659628547,"source":"CELESTRAK","updated_at":"2026-05-25T13:38:22.067069Z"}}